Temperature
4 5 5 5 5 5 5 5 5 6 6 6 6 6 6 6 6 6 7 7 7 7 7 7 7 7 7 6 6 6 6 5 5 5 5 5 4 4 4 4 4 4 4
4 4 4 4 5 5 5 5 5 5 5 5 5 6 6 6 6 6 6 6 6 6 6 6 6 6 6 6 6 6 5 5 5 5 5 4 4 4 4 3 3 3 3
3 3 4 4 4 4 4 4 5 5 5 5 5 5 5 5 5 5 6 6 6 6 6 6 6 6 6 5 5 5 5 5 4 4 4 4 4 4 3 3 3 3 3
3 3 3 3 3 4 4 4 4 4 4 4 4 5 5 5 5 5 5 5 5 5 6 6 6 5 5 5 5 5 4 4 4 4 4 4 3 3 3 3 3 3 3
2 2 3 3 3 3 3 3 4 4 4 4 4 4 4 4 4 4 4 4 5 5 5 5 5 5 5 4 4 4 4 4 4 4 3 3 3 3 3 2 2 2 2
2 2 2 2 2 3 3 3 3 3 3 3 3 4 4 4 4 4 4 4 4 4 5 5 5 5 4 4 4 4 4 4 4 3 3 3 3 3 2 2 2 2 1
1 2 2 2 2 2 2 2 2 3 3 3 3 3 3 4 4 3 3 3 4 4 4 4 4 4 4 4 3 3 3 3 3 3 3 3 2 2 2 2 1 1 1
1 1 1 1 1 2 2 2 2 2 2 2 2 3 3 3 3 3 3 3 3 3 4 4 4 4 3 3 3 3 3 3 3 3 3 2 2 2 2 1 1 1 1
0 0 1 1 1 1 1 1 1 1 2 2 2 2 2 2 2 2 3 3 3 3 3 3 3 3 3 3 3 3 3 3 2 2 2 2 2 2 1 1 1 1 0
-0 0 0 0 1 1 1 1 1 1 1 1 2 2 2 2 2 2 2 2 2 2 2 2 3 3 3 2 2 2 2 2 2 2 2 2 2 2 1 1 1 0 -0
-1 -0 -0 -0 0 0 0 0 0 1 1 1 1 1 1 1 1 1 1 1 2 2 2 2 2 2 2 2 2 2 2 2 1 2 2 2 1 1 1 1 0 0 0
-1 -1 -1 -1 -0 -0 -0 -0 -0 0 0 0 0 0 0 1 1 1 1 1 1 1 2 2 2 2 2 2 1 1 1 1 1 1 1 1 1 1 1 1 0 0 0
-2 -1 -1 -1 -1 -1 -1 -1 -1 -1 -1 -1 -1 -0 -0 0 1 1 1 1 1 1 1 1 1 1 1 1 1 1 1 1 1 1 1 1 0 0 0 0 0 0 0
-2 -2 -2 -2 -1 -1 -1 -1 -1 -1 -1 -1 -1 -1 -1 -0 -0 0 0 0 0 0 1 1 1 1 1 0 0 0 0 0 0 0 0 0 0 0 0 0 0 -0 0
-3 -2 -2 -2 -2 -2 -2 -2 -2 -2 -2 -2 -2 -2 -1 -1 -1 -1 -1 -0 -0 -0 -0 0 0 0 0 0 0 0 -0 -0 -0 -0 -0 -0 -0 -0 -0 -0 -0 -0 -0
-3 -3 -3 -3 -3 -2 -2 -2 -2 -2 -2 -2 -2 -2 -2 -2 -1 -1 -1 -1 -1 -1 -1 -1 -1 -1 -1 -1 -0 -0 -0 -0 -1 -1 -1 -0 -0 -0 -1 -1 -1 -1 -1
-3 -3 -3 -3 -3 -3 -3 -3 -2 -2 -2 -2 -2 -2 -2 -2 -2 -1 -1 -1 -1 -1 -1 -2 -2 -2 -1 -1 -1 -1 -1 -1 -1 -1 -1 -1 -1 -1 -1 -1 -1 -1 -1
-4 -4 -4 -4 -4 -3 -3 -3 -3 -3 -3 -2 -2 -2 -2 -2 -2 -2 -2 -2 -2 -2 -2 -2 -2 -2 -2 -2 -2 -2 -1 -1 -1 -1 -1 -1 -1 -1 -1 -1 -1 -1 -1
-4 -4 -4 -4 -4 -4 -4 -4 -4 -4 -3 -3 -3 -3 -3 -2 -2 -2 -2 -2 -2 -2 -2 -2 -2 -2 -2 -2 -2 -2 -2 -2 -1 -1 -1 -1 -1 -1 -1 -1 -1 -1 -1
-4 -4 -4 -4 -4 -4 -4 -4 -4 -4 -4 -4 -3 -3 -3 -3 -3 -3 -3 -3 -3 -3 -3 -3 -3 -3 -3 -2 -2 -2 -2 -2 -2 -2 -2 -2 -2 -2 -2 -2 -2 -2 -2
-5 -5 -5 -5 -5 -5 -5 -5 -5 -5 -4 -4 -4 -4 -4 -4 -3 -3 -3 -3 -3 -3 -3 -3 -3 -3 -3 -3 -3 -2 -2 -2 -2 -2 -2 -2 -2 -2 -2 -2 -2 -2 -2
-5 -5 -5 -5 -5 -5 -5 -5 -5 -5 -5 -5 -4 -4 -4 -4 -4 -3 -3 -3 -3 -3 -3 -3 -3 -3 -3 -3 -3 -3 -2 -2 -2 -2 -2 -2 -2 -2 -2 -2 -2 -2 -2
-5 -5 -5 -5 -5 -5 -5 -5 -5 -5 -5 -5 -5 -4 -4 -4 -4 -4 -4 -4 -3 -3 -3 -3 -3 -3 -3 -3 -3 -3 -3 -2 -2 -2 -2 -2 -2 -2 -2 -2 -2 -2 -2
-6 -6 -6 -6 -6 -6 -6 -6 -6 -6 -6 -5 -5 -5 -5 -5 -4 -4 -4 -4 -4 -4 -3 -3 -3 -3 -3 -3 -3 -3 -3 -3 -3 -2 -2 -2 -2 -2 -2 -2 -2 -2 -2
-6 -6 -6 -6 -6 -6 -6 -6 -6 -6 -6 -6 -6 -5 -5 -5 -5 -4 -4 -4 -4 -4 -4 -4 -4 -3 -3 -3 -3 -3 -3 -3 -3 -3 -3 -2 -2 -2 -2 -2 -2 -2 -2
-6 -7 -7 -7 -7 -7 -7 -7 -6 -6 -6 -6 -6 -6 -5 -5 -5 -5 -5 -4 -4 -4 -4 -4 -4 -4 -3 -3 -3 -3 -3 -3 -3 -3 -3 -2 -2 -2 -2 -2 -2 -2 -3
Wind_Speed
1 1 1 1 1 1 1 2 3 2 2 3 3 3 4 4 4 4 4 4 4 4 3 4 3 3 2 3 3 2 3 3 3 2 2 2 2 2 2 3 4 5 6
1 1 1 0 0 1 1 1 2 2 2 3 3 3 4 4 4 5 5 4 5 5 4 4 3 3 2 2 3 3 3 3 3 3 2 2 2 2 2 2 4 5 5
1 1 0 0 1 1 1 1 1 1 1 1 2 2 3 4 4 5 4 4 4 5 5 5 4 4 3 2 3 3 3 2 2 2 2 2 2 1 1 3 3 3 4
1 1 1 1 1 1 1 1 1 0 1 1 2 2 2 3 3 4 4 4 4 4 4 4 4 5 5 4 4 4 3 3 2 2 2 2 2 2 1 2 3 3 4
1 2 2 1 1 0 0 1 1 1 1 1 1 1 1 1 2 3 4 4 4 3 3 3 3 4 5 4 4 4 4 3 3 2 2 2 2 2 2 2 3 3 4
1 2 3 2 1 0 0 1 1 1 1 1 1 1 1 1 1 3 4 4 3 3 3 2 2 3 4 4 5 4 4 5 4 3 3 3 4 3 2 2 2 3 3
1 2 2 2 1 0 0 0 0 1 2 1 1 1 1 1 1 3 3 3 3 3 3 3 2 2 2 2 2 2 3 4 5 5 4 5 4 4 3 3 3 3 4
2 2 2 2 2 1 0 0 0 1 1 1 1 1 1 1 1 1 2 2 3 3 4 4 3 3 3 3 2 2 2 2 3 3 4 4 4 4 4 3 3 2 3
2 3 2 2 2 1 1 1 1 0 1 1 1 1 1 2 1 1 2 2 2 2 3 3 3 4 4 3 3 2 1 2 2 2 3 2 3 3 2 1 1 2 4
3 3 3 2 2 1 1 1 1 0 1 1 1 1 1 1 2 1 1 2 2 2 2 2 4 4 4 4 3 3 3 2 1 1 1 1 0 1 2 2 2 2 3
3 3 2 2 2 1 0 1 1 1 1 1 1 1 1 1 2 1 1 1 2 2 2 2 2 3 4 4 3 3 3 2 1 1 0 0 1 1 1 2 1 2 3
3 2 2 2 2 2 1 1 1 1 1 2 1 2 2 1 2 1 1 1 1 2 2 2 2 2 3 3 2 2 2 1 1 1 1 0 0 1 2 2 2 1 1
3 3 2 3 2 2 1 1 1 1 1 1 1 2 2 2 2 3 2 1 1 1 1 1 2 2 2 1 1 2 2 1 1 1 1 1 1 1 1 1 2 2 3
3 3 2 2 2 3 2 1 1 1 1 1 1 2 2 2 2 2 2 1 1 1 1 1 2 2 1 1 1 1 1 1 1 1 1 1 1 1 1 1 1 2 2
2 2 3 2 2 2 3 2 2 2 1 1 2 2 2 2 3 4 2 1 0 1 1 1 1 1 1 1 1 1 0 0 0 0 0 0 1 1 2 2 1 1 1
2 2 2 2 2 2 2 3 5 3 4 4 4 3 3 3 4 4 3 2 1 2 2 2 1 1 1 1 1 0 1 1 1 1 1 1 1 1 1 2 1 1 1
1 1 1 2 2 2 2 2 3 5 6 6 5 6 5 4 4 4 2 1 1 2 2 1 1 1 1 1 1 1 1 1 1 1 1 1 1 1 1 1 1 1 1
1 2 2 1 1 1 1 2 2 2 4 4 5 6 6 5 5 4 2 1 1 1 1 1 1 1 1 1 1 1 1 1 1 1 1 1 1 1 1 1 1 1 1
1 1 1 1 1 1 1 2 2 2 2 3 4 5 6 6 5 4 2 1 1 0 0 1 1 1 1 1 1 1 1 1 1 1 1 1 1 1 1 1 1 1 1
1 2 2 1 1 1 1 2 2 2 2 3 3 4 4 4 3 2 2 1 0 0 1 1 1 1 1 1 1 1 1 1 1 1 1 1 1 1 1 1 1 1 1
1 2 3 2 1 1 1 1 2 2 2 3 3 4 5 3 2 2 2 1 1 1 1 1 1 1 1 1 1 2 2 1 1 1 1 1 1 1 1 1 1 0 0
1 1 1 1 1 2 2 1 2 2 2 3 3 4 6 3 2 2 2 2 2 1 2 2 2 1 1 2 2 2 2 2 2 1 1 1 1 1 0 0 0 0 0
1 1 1 1 2 2 2 2 2 2 2 2 3 3 3 3 3 2 2 2 2 2 2 2 1 1 1 1 2 2 2 3 2 2 2 1 1 1 1 1 1 1 0
1 1 1 1 1 1 1 2 2 2 2 2 3 3 3 3 3 3 3 2 2 3 3 2 2 2 2 2 2 2 2 2 2 2 3 2 2 1 1 1 1 1 1
0 0 1 1 1 1 1 2 2 2 2 2 3 3 3 3 3 3 3 3 3 3 3 3 2 2 2 2 2 2 1 1 1 2 3 2 2 2 2 2 1 1 1
0 0 1 1 1 1 1 1 2 2 2 2 3 3 3 3 3 3 3 3 3 3 4 3 3 3 3 2 2 1 0 1 1 2 3 2 2 2 2 1 1 1 1
Wind_Direction
249 251 238 226 234 252 225 224 228 225 226 226 222 216 217 209 201 202 212 194 186 184 184 185 193 183 179 183 183 184 182 176 213 269 271 259 254 258 291 296 300 296 299
297 271 235 214 200 249 269 263 254 231 228 230 225 219 220 213 202 205 210 198 192 189 190 186 194 178 180 189 186 189 191 189 188 234 273 265 254 245 263 289 302 301 299
338 316 317 335 246 251 265 276 282 275 263 250 233 233 227 216 208 211 208 201 196 194 192 192 192 174 193 195 192 195 195 190 183 202 253 270 277 264 288 301 306 304 305
359 2 311 279 266 257 262 278 267 280 265 256 263 258 245 228 214 209 199 198 195 199 196 194 195 194 201 200 200 199 187 182 182 199 234 258 275 270 264 293 313 315 316
4 352 328 313 302 307 341 355 354 329 287 259 264 288 271 244 219 199 193 193 191 196 197 199 204 207 206 205 206 200 188 188 189 204 232 258 269 266 265 272 293 309 310
358 332 329 332 333 341 8 21 7 341 323 305 272 279 275 263 229 196 190 188 186 189 196 200 213 201 205 218 223 219 204 194 199 210 229 237 250 253 257 262 284 305 302
338 336 337 330 321 275 95 62 348 335 349 338 311 288 281 290 260 201 189 184 182 191 195 192 207 210 204 202 223 244 247 246 225 211 222 233 235 233 236 258 269 282 284
340 341 342 340 318 313 91 72 11 5 338 315 316 309 311 302 303 177 175 183 185 196 202 198 200 209 206 189 192 213 253 272 259 238 220 230 231 227 228 243 259 294 302
354 347 341 335 333 344 25 5 0 355 331 321 322 322 316 307 320 218 170 177 186 203 209 200 198 206 206 187 177 185 236 301 317 286 271 255 247 239 224 192 246 297 306
344 338 337 336 339 333 319 324 336 343 336 327 333 332 306 285 318 273 193 170 180 200 207 209 209 205 200 192 185 184 209 249 249 10 7 6 11 223 272 229 212 244 287
329 336 340 338 336 318 326 341 343 4 16 359 343 340 331 318 330 317 205 191 193 198 211 221 219 204 199 198 197 199 212 201 183 169 136 45 17 10 347 333 270 236 252
342 347 345 344 345 360 33 6 4 40 42 6 356 354 354 337 343 342 289 222 202 190 208 209 204 194 195 193 192 178 159 127 139 147 148 200 292 311 329 342 348 350 283
355 354 355 358 4 8 28 14 11 30 36 344 339 336 341 342 341 344 333 284 231 198 189 185 176 174 171 166 151 138 131 137 155 172 203 259 280 277 313 336 349 17 14
359 354 0 13 16 14 8 0 6 355 346 327 317 314 320 328 325 316 309 301 300 206 160 145 134 124 102 94 107 107 127 177 193 205 227 276 319 319 315 319 305 324 340
356 355 1 11 21 15 13 7 345 324 310 294 289 287 293 300 311 319 309 290 242 176 138 119 108 122 113 86 67 39 110 142 201 228 207 274 321 333 327 327 305 310 314
353 357 357 3 12 20 23 12 8 0 2 356 342 328 314 314 320 324 328 348 18 119 122 139 155 161 177 176 182 252 252 210 217 227 237 248 268 287 316 325 319 310 320
319 332 342 352 1 5 6 9 360 4 12 10 5 358 349 344 344 342 343 42 73 115 122 151 175 194 204 202 221 234 244 245 227 228 245 252 255 271 291 302 318 336 344
332 333 335 335 342 341 340 343 344 349 349 351 355 359 357 355 357 356 10 62 85 75 130 174 196 206 217 224 231 242 248 244 241 248 261 252 236 248 288 291 292 310 322
335 333 337 344 348 342 344 356 355 349 348 342 345 353 358 358 4 13 36 81 135 267 277 238 215 217 228 233 234 233 234 233 240 248 265 265 240 203 242 270 277 284 312
348 355 358 6 10 4 4 8 360 350 347 348 345 340 342 354 359 1 10 26 57 309 287 274 258 252 238 231 232 224 230 231 224 240 262 273 269 234 220 221 231 248 288
349 354 358 6 8 359 0 355 346 343 343 344 336 335 342 347 343 342 347 354 332 298 288 280 266 251 243 237 230 220 219 229 227 229 241 255 257 257 246 216 217 230 282
357 354 355 358 359 0 359 354 347 347 348 346 341 344 352 356 348 346 346 340 331 317 303 289 282 259 237 239 237 223 223 232 230 223 221 219 224 227 193 168 164 174 182
12 11 8 4 4 360 0 356 353 350 348 345 342 347 351 351 344 347 349 343 341 338 337 324 304 308 318 292 269 243 224 228 230 220 208 188 180 190 187 177 167 167 166
20 12 0 352 353 357 352 348 346 345 344 344 345 346 343 339 344 350 348 344 345 344 343 336 324 314 312 315 309 283 260 244 216 199 193 183 177 183 181 172 184 196 192
2 345 330 325 331 335 340 343 345 344 343 343 342 342 339 339 345 347 348 351 350 347 344 343 344 335 321 298 296 296 268 240 204 170 167 172 173 176 174 173 182 183 170
272 286 294 302 308 312 321 324 324 327 329 330 332 332 330 333 339 342 344 350 350 349 349 351 349 343 337 328 303 288 234 181 174 153 143 154 161 163 158 160 159 163 158
Height
1453 1453 1453 1454 1454 1455 1455 1456 1456 1457 1458 1459 1460 1461 1462 1464 1465 1466 1467 1469 1470 1471 1473 1474 1475 1476 1477 1478 1480 1480 1481 1482 1481 1481 1482 1482 1482 1481 1481 1480 1479 1477 1476
1450 1451 1451 1452 1452 1453 1453 1454 1454 1454 1455 1456 1457 1458 1459 1460 1461 1462 1463 1465 1466 1467 1469 1470 1472 1473 1474 1475 1476 1477 1477 1478 1478 1477 1478 1478 1478 1478 1477 1476 1475 1474 1472
1449 1449 1449 1449 1450 1451 1451 1451 1451 1452 1452 1453 1454 1454 1455 1456 1457 1458 1460 1461 1462 1464 1466 1467 1468 1469 1470 1471 1472 1473 1474 1475 1475 1475 1474 1474 1474 1474 1473 1472 1471 1470 1468
1447 1447 1447 1447 1448 1449 1449 1449 1449 1449 1450 1450 1451 1451 1452 1453 1453 1454 1456 1458 1459 1461 1463 1464 1465 1467 1468 1468 1469 1470 1470 1471 1471 1471 1471 1470 1470 1470 1469 1467 1466 1465 1464
1446 1445 1445 1446 1446 1446 1447 1447 1447 1448 1448 1448 1449 1449 1449 1449 1450 1451 1453 1455 1456 1458 1459 1461 1462 1464 1464 1465 1466 1466 1467 1467 1467 1467 1467 1466 1466 1465 1465 1464 1462 1461 1460
1444 1444 1444 1444 1444 1444 1444 1445 1445 1446 1446 1446 1446 1446 1447 1447 1447 1448 1450 1452 1453 1454 1456 1457 1458 1460 1461 1462 1462 1463 1463 1463 1463 1463 1463 1462 1462 1462 1461 1460 1459 1457 1455
1443 1442 1442 1442 1442 1442 1442 1443 1443 1443 1444 1444 1444 1444 1444 1444 1445 1446 1448 1449 1450 1451 1453 1454 1455 1456 1457 1458 1458 1459 1460 1460 1461 1461 1460 1459 1459 1459 1458 1457 1456 1455 1453
1441 1441 1441 1441 1440 1440 1440 1440 1441 1441 1441 1441 1441 1442 1442 1442 1443 1444 1445 1446 1447 1448 1449 1450 1451 1452 1453 1454 1455 1455 1456 1456 1457 1457 1457 1456 1456 1456 1455 1455 1453 1452 1451
1440 1439 1439 1439 1439 1439 1438 1439 1439 1439 1439 1439 1439 1439 1439 1440 1440 1441 1442 1443 1444 1445 1446 1447 1448 1449 1450 1451 1452 1452 1452 1453 1453 1454 1454 1453 1452 1452 1452 1451 1450 1449 1447
1439 1438 1438 1438 1438 1437 1437 1437 1437 1437 1437 1437 1437 1437 1437 1438 1438 1439 1440 1440 1441 1442 1443 1444 1446 1446 1447 1448 1449 1448 1449 1449 1449 1449 1450 1449 1449 1449 1449 1449 1448 1446 1445
1438 1437 1437 1437 1437 1436 1436 1436 1436 1435 1435 1435 1435 1435 1435 1436 1436 1436 1437 1438 1438 1439 1440 1441 1443 1444 1444 1445 1446 1446 1447 1447 1446 1446 1446 1446 1446 1446 1446 1446 1445 1444 1443
1437 1436 1436 1436 1436 1435 1435 1434 1434 1434 1433 1433 1433 1433 1433 1434 1434 1434 1435 1435 1436 1437 1438 1439 1440 1441 1442 1443 1443 1444 1444 1444 1444 1443 1443 1443 1443 1443 1443 1443 1442 1442 1441
1436 1435 1435 1435 1435 1434 1434 1433 1433 1432 1432 1431 1431 1431 1431 1432 1432 1432 1432 1433 1434 1434 1435 1437 1438 1439 1440 1440 1441 1441 1441 1441 1441 1441 1441 1441 1441 1440 1440 1440 1439 1439 1438
1435 1434 1434 1434 1433 1433 1433 1432 1432 1431 1430 1430 1430 1430 1429 1429 1429 1430 1430 1431 1431 1432 1433 1434 1435 1436 1437 1438 1438 1439 1439 1439 1440 1439 1439 1439 1439 1438 1438 1437 1436 1436 1435
1434 1434 1433 1433 1432 1432 1432 1432 1431 1430 1430 1429 1429 1428 1428 1427 1428 1428 1428 1429 1429 1430 1431 1431 1432 1433 1434 1435 1436 1437 1437 1437 1437 1438 1437 1437 1436 1436 1435 1435 1435 1434 1433
1434 1433 1433 1432 1432 1431 1431 1430 1430 1429 1429 1428 1428 1427 1427 1427 1426 1426 1427 1427 1427 1428 1428 1429 1429 1430 1432 1433 1433 1434 1434 1435 1435 1435 1435 1435 1434 1434 1434 1433 1433 1432 1431
1433 1432 1432 1431 1431 1430 1430 1429 1427 1428 1427 1427 1427 1426 1425 1425 1425 1425 1425 1425 1425 1426 1426 1426 1427 1428 1430 1431 1431 1432 1432 1433 1433 1433 1433 1433 1433 1432 1432 1432 1431 1430 1430
1432 1432 1431 1431 1430 1430 1429 1428 1427 1426 1425 1424 1425 1425 1424 1423 1423 1423 1423 1423 1423 1424 1424 1424 1425 1426 1427 1428 1429 1430 1430 1431 1431 1431 1431 1431 1431 1431 1431 1430 1430 1429 1428
1432 1431 1430 1430 1429 1429 1428 1427 1426 1425 1424 1424 1423 1423 1423 1422 1421 1421 1421 1421 1421 1421 1422 1423 1423 1424 1425 1426 1427 1428 1428 1428 1429 1429 1429 1429 1429 1429 1429 1429 1428 1428 1427
1431 1430 1430 1429 1429 1428 1427 1426 1425 1425 1424 1423 1422 1422 1421 1421 1420 1420 1420 1420 1420 1420 1421 1421 1422 1422 1423 1424 1424 1425 1425 1426 1426 1427 1427 1427 1428 1428 1427 1427 1427 1426 1426
1430 1429 1429 1428 1428 1427 1426 1426 1425 1424 1423 1422 1422 1421 1421 1420 1420 1419 1419 1419 1419 1419 1419 1420 1420 1421 1421 1422 1422 1423 1423 1424 1424 1425 1425 1425 1426 1426 1426 1425 1425 1425 1425
1429 1428 1428 1427 1427 1426 1425 1425 1424 1423 1422 1422 1421 1421 1420 1420 1419 1418 1418 1418 1418 1418 1418 1418 1419 1419 1420 1420 1421 1421 1421 1422 1422 1423 1423 1423 1424 1424 1424 1424 1424 1424 1423
1428 1427 1427 1426 1426 1425 1425 1424 1423 1422 1422 1421 1420 1420 1419 1419 1418 1418 1418 1417 1417 1417 1417 1417 1418 1418 1418 1419 1419 1420 1420 1420 1421 1421 1421 1421 1422 1422 1422 1422 1422 1422 1422
1427 1426 1426 1425 1425 1424 1424 1423 1422 1421 1421 1420 1420 1419 1418 1418 1417 1417 1417 1417 1416 1416 1416 1416 1416 1417 1417 1417 1417 1418 1418 1419 1419 1419 1420 1420 1420 1421 1421 1421 1422 1422 1422
1426 1425 1425 1424 1424 1423 1422 1422 1421 1421 1420 1420 1419 1418 1418 1417 1417 1416 1416 1416 1416 1416 1415 1415 1415 1415 1416 1416 1416 1416 1416 1417 1417 1418 1418 1419 1419 1419 1420 1420 1421 1421 1421
1424 1424 1423 1423 1422 1422 1421 1421 1420 1420 1419 1419 1418 1417 1417 1417 1416 1416 1416 1415 1415 1415 1414 1414 1414 1414 1414 1414 1415 1415 1415 1415 1416 1416 1417 1417 1417 1418 1418 1419 1420 1420 1420